BEIDOU-3 IGSO-1

Last updated on Jan. 29, 2020, 4:37 a.m. UTC

1 44204U 19023A   20028.72476631 -.00000198  00000-0  10000-3 0  9990
2 44204  55.2943  62.4681 0015042 195.1641 245.9446  1.00279268  2988
UTC
Height (km)
Latitude
Longitude
Inclination
Orbital Period
UTC large
Height (km)
Speed (km/s)
/
Latitude / Longitude
Inclination (degrees)
Orbital Period (minutes)
Azimuth
Elevation
Range (km)
Doppler Factor
iOS Compass Heading
iOS Angle

Next 30 passes for location: Hong Kong

Rise time Rise Azimuth (degrees) Set time Set Azimuth (degrees) Duration Max altitude (degrees)

No matching passes for this satellites